sat.trackr.live / text

‹ back to catalog

SHIJIAN-17 (SJ-17)

NORAD 41838 · 2016-065A

PAYLOAD ACTIVE UNKNOWN

§ Identity

Operator
Country
PRC
Launch date
2016-11-03
Launch site
WSC
Launch vehicle
Mass (kg)
RCS (m²)
19.83

Purposes: comms

External: N2YO · Heavens-Above · Gunter

§ Orbital elements

Epoch: 2026-09-19T21:02:34.733760Z

Period
1,442.09 min
Inclination
5.9869°
Eccentricity
0.0001821
Mean motion
0.99854943 rev/d
Perigee alt
35,896.2 km
Apogee alt
35,911.6 km
Semi-major
42,282.0 km
B*
0.0000e+0
RAAN
71.4159°
Arg perigee
73.2309°
Mean anomaly
266.7334°
Rev number
3,614

§ Raw data

SHIJIAN-17 (SJ-17)1 41838U 16065A   26262.87679090 -.00000203  00000+0  00000+0 0  99902 41838   5.9869  71.4159 0001821  73.2309 266.7334  0.99854943 36142

JSON: /api/v1/satellites/41838 · /tle

For live sub-satellite position, see the globe view (requires WebGL).

§ Visibility from observer

Set your observer location to see the next 7 days of passes ≥ 10°. The values pass through the URL so the page stays shareable.

No JS? Fill the form by hand. The geolocation button needs JavaScript.